[[{"header":{"parameterUnit":"m.s-1","parameterCategory":2,"la1":30.2991,"la2":30.254,"lo1":-89.0895,"lo2":-89.0444,"dy":0.0017,"dx":0.0017,"nx":28,"ny":28,"refTime":"2024-02-06T09:00:00:Z","depth":"0","parameterNumber":2,"parameterNumberName":"U-component_of_CURRENTS"},"data":[0,0,0,0,0,0,0,0,0,0,0,0,0,0,0,0,0,0,0,0,0,0,0,0,0,0,0,0,0,0,0,0,0,0,0,0,0,0,0,0,0,0,0,0,0,0,0,0,0,0,0,0,0,0,0,0,0,0,0.3343,0.3343,0,0.3348,0.3347,0.3347,0.3318,0.3317,0.3316,0.3316,0.3283,0.3282,0.3282,0,0,0,0,0,0,0,0,0,0,0,0,0,0.3326,0.3326,0.3343,0.3343,0.3344,0.3348,0.3347,0.3347,0.3318,0.3317,0.3316,0.3316,0.3283,0.3282,0.3282,0,0,0,0,0,0,0,0,0,0,0,0,0,0.3329,0.3326,0.3343,0.3332,0.3331,0.3348,0.3347,0.3347,0.3318,0.3317,0.3316,0.3315,0.3283,0.3282,0.3282,0.3295,0,0,0.328,0.328,0,0,0,0,0,0,0,0,0.3329,0.333,0.3333,0.3333,0.3332,0.3334,0.3329,0.3329,0.3318,0.332,0.3316,0.3315,0.3299,0.3297,0.3296,0.3294,0.3292,0.328,0.328,0.328,0.328,0,0,0,0,0,0,0,0.3329,0.3329,0.3342,0.3334,0.3333,0.3333,0.3332,0.3329,0.3311,0.3319,0.3318,0.3324,0.3298,0.3297,0.3295,0.3292,0.328,0.328,0.3279,0.3279,0.3332,0.3334,0,0,0,0,0,0,0.3335,0.3329,0.3342,0.3342,0.3332,0.3334,0.3332,0.3331,0.3312,0.3309,0.3324,0.3322,0.3298,0.3296,0.3294,0.3327,0.328,0.3279,0.3279,0.3331,0.3333,0.3334,0,0,0,0,0,0,0.3334,0.3335,0.3342,0.3339,0.334,0.3335,0.3334,0.3332,0.3336,0.3316,0.3312,0.3331,0.3297,0.3294,0.3304,0.3324,0.3279,0.3278,0.3328,0.3331,0.3334,0.3381,0,0,0,0,0,0,0.3333,0.3335,0.3339,0.3339,0.334,0.3359,0.3335,0.3333,0.3342,0.3339,0.3321,0.3317,0.3296,0.3305,0.3303,0.3323,0.3278,0.3326,0.333,0.3333,0.3377,0.3385,0.3392,0,0,0,0,0,0.3333,0.3338,0.3339,0.3341,0.3345,0.336,0.3361,0.3353,0.3343,0.3352,0.3343,0.3318,0.3325,0.3306,0.3304,0.3323,0.3325,0.3329,0.3332,0.3374,0.3384,0.3391,0,0,0,0,0,0,0.3328,0.3336,0.3337,0.3343,0.3357,0.3357,0.3362,0.3363,0.3363,0.3359,0.3336,0.3332,0.3353,0.3337,0.3317,0.3352,0.3323,0.3326,0.3355,0.3364,0.3371,0.3404,0.3278,0,0,0,0,0,0.3333,0.3338,0.3351,0.3356,0.3364,0.3367,0.3374,0.3375,0.3375,0.3374,0.3362,0.3358,0.3368,0.3364,0.3368,0.338,0.339,0.3395,0.3402,0.3408,0.3436,0.3466,0.3478,0.3347,0.3347,0.3347,0,0,0.3332,0.3338,0.334,0.3357,0.3362,0.3381,0.3368,0.3384,0.3407,0.3372,0.3389,0.3386,0.3381,0.34,0.3407,0.3385,0.3451,0.3413,0.3418,0.3443,0.3471,0.3484,0.3495,0.335,0.3349,0.3349,0,0,0.3336,0.334,0.3348,0.3366,0.3389,0.3395,0.3406,0.3416,0.3426,0.3443,0.3438,0.3456,0.3442,0.346,0.3463,0.3518,0.3495,0.3508,0.3558,0.3586,0.3597,0.3606,0.3633,0.3645,0.3501,0.3501,0.3501,0,0.3338,0.3347,0.3356,0.3377,0.3392,0.3405,0.3426,0.3448,0.3462,0.3478,0.3452,0.3482,0.3479,0.3527,0.355,0.3535,0.3542,0.3519,0.3594,0.3604,0.3614,0.3639,0.3651,0.3504,0.3504,0.3503,0.3503,0,0.3351,0.3365,0.3373,0.3402,0.3424,0.3443,0.3478,0.3503,0.3506,0.3521,0.3564,0.3567,0.3581,0.3588,0.3583,0.3654,0.3636,0.3605,0.357,0.3629,0.3653,0.3665,0.3508,0.3507,0.3506,0.3505,0,0,0.333,0.3373,0.3376,0.3387,0.3438,0.3448,0.3507,0.3551,0.3586,0.36,0.3642,0.3677,0.3677,0.3687,0.369,0.3724,0.3797,0.3696,0.3696,0.372,0.3859,0.3812,0.382,0.3767,0.3769,0.3771,0.3848,0,0.3335,0.3364,0.3396,0.3424,0.3437,0.3483,0.353,0.3579,0.3617,0.3663,0.3694,0.3733,0.3716,0.3729,0.3764,0.3801,0.3832,0.378,0.3803,0.3805,0.3751,0.3834,0.3671,0.3723,0.3859,0.3861,0.3863,0,0.3331,0.335,0.3378,0.3421,0.3433,0.346,0.353,0.3584,0.3675,0.3708,0.3761,0.3784,0.3867,0.3827,0.3916,0.3878,0.3883,0.3899,0.39,0.3854,0.3781,0.3687,0.374,0.3643,0.3881,0.3879,0.3878,0,0.3283,0.3331,0.3345,0.3362,0.3424,0.3449,0.3492,0.3586,0.3649,0.3754,0.3797,0.3872,0.3922,0.395,0.399,0.3954,0.4075,0.4014,0.3978,0.3973,0.3844,0.3824,0.3803,0.4073,0.4073,0.4072,0.4072,0,0.3263,0.3269,0.3317,0.3322,0.3353,0.3411,0.3476,0.3543,0.3655,0.373,0.3813,0.3889,0.3957,0.4024,0.4029,0.4059,0.4099,0.4024,0.4003,0.3855,0.3836,0.3751,0.3716,0.4075,0.4075,0.4074,0.4074,0,0.3203,0.3238,0.3253,0.3308,0.333,0.3352,0.3466,0.351,0.3633,0.374,0.3779,0.393,0.4025,0.4077,0.4153,0.4113,0.4029,0.4129,0.3959,0.3917,0.3763,0.3737,0.3622,0.3516,0.4098,0.4098,0.4097,0,0.3172,0.3172,0.3229,0.3241,0.3264,0.3319,0.3356,0.3487,0.3551,0.3758,0.3794,0.3948,0.403,0.414,0.4126,0.4135,0.4013,0.397,0.3875,0.3769,0.3725,0.3598,0.3508,0.372,0.3716,0.3714,0.3711,0,0.3113,0.3136,0.3151,0.3178,0.3205,0.3252,0.332,0.3373,0.3528,0.3615,0.3753,0.3849,0.3997,0.3966,0.4005,0.3981,0.3781,0.391,0.3837,0.3479,0.3304,0.3184,0.3664,0.3686,0.3688,0.369,0.3692,0.3693,0.3067,0.3064,0.3086,0.3095,0.3125,0.3146,0.3141,0.3226,0.3305,0.3395,0.3599,0.3664,0.3761,0.3808,0.3774,0.3622,0.3627,0.3477,0.3473,0.337,0.3206,0.3647,0.3618,0.362,0.3622,0.3623,0.3625,0,0.2986,0.2987,0.2996,0.2993,0.2961,0.3026,0.307,0.3035,0.3041,0.3198,0.3283,0.3362,0.3347,0.34,0.335,0.3213,0.3051,0.3098,0.2875,0.2821,0.3243,0.3165,0.2991,0.2991,0.2991,0.2991,0.2991,0.2991,0.2947,0.2909,0.2901,0.2814,0.2804,0.272,0.2709,0.2689,0.2754,0.2775,0.2818,0.2933,0.3129,0.3143,0.3017,0.2922,0.2696,0.255,0.2569,0.2866,0.29,0.2932,0.2849,0.2612,0.2611,0.2001,0.1997,0.1993]},{"header":{"parameterUnit":"m.s-1","parameterCategory":2,"la1":30.2991,"la2":30.254,"lo1":-89.0895,"lo2":-89.0444,"dy":0.0017,"dx":0.0017,"nx":28,"ny":28,"refTime":"2024-02-06T09:00:00:Z","depth":"0","parameterNumber":3,"parameterNumberName":"V-component_of_CURRENTS"},"data":[0,0,0,0,0,0,0,0,0,0,0,0,0,0,0,0,0,0,0,0,0,0,0,0,0,0,0,0,0,0,0,0,0,0,0,0,0,0,0,0,0,0,0,0,0,0,0,0,0,0,0,0,0,0,0,0,0,0,0.0077,0.0076,0,0.0028,0.0027,0.0027,-0.0009,-0.0009,-0.001,-0.001,-0.0074,-0.0075,-0.0077,0,0,0,0,0,0,0,0,0,0,0,0,0,0.0079,0.008,0.0077,0.0076,0.0076,0.0028,0.0027,0.0027,-0.0009,-0.0009,-0.001,-0.001,-0.0073,-0.0075,-0.0077,0,0,0,0,0,0,0,0,0,0,0,0,0,0.0059,0.008,0.0077,0.0053,0.005,0.0028,0.0027,0.0027,-0.0009,-0.0009,-0.001,-0.001,-0.0073,-0.0075,-0.0077,-0.0083,0,0,-0.0084,-0.0085,0,0,0,0,0,0,0,0,0.006,0.0059,0.0057,0.0054,0.0051,0.0016,0.0005,-0.0011,-0.0009,0.0013,-0.001,-0.001,-0.0045,-0.0049,-0.0058,-0.0086,-0.0088,-0.0084,-0.0085,-0.0086,-0.0087,0,0,0,0,0,0,0,0.0062,0.006,0.0057,0.0056,0.0053,0.0024,0.0021,0.0001,-0.0014,0.0011,0.0008,0.0004,-0.0046,-0.0056,-0.006,-0.0089,-0.0084,-0.0086,-0.0087,-0.0088,-0.0125,-0.0125,0,0,0,0,0,0,0.0073,0.0062,0.0059,0.0056,0.0055,0.0024,0.0021,0.0027,-0.0013,-0.002,0.0004,0.0002,-0.0052,-0.0057,-0.0062,-0.0055,-0.0086,-0.0088,-0.0089,-0.0126,-0.0125,-0.0125,0,0,0,0,0,0,0.0073,0.0073,0.0061,0.0057,0.0054,0.0025,0.0032,0.0026,0.0021,-0.0018,-0.0025,0.0005,-0.0052,-0.0059,-0.0073,-0.0058,-0.0089,-0.0091,-0.0126,-0.0125,-0.0125,-0.0051,0,0,0,0,0,0,0.0073,0.0074,0.0082,0.0059,0.0054,0.006,0.0032,0.0026,0.0019,0.0016,-0.002,-0.0026,-0.0053,-0.0069,-0.0075,-0.0062,-0.0093,-0.0126,-0.0126,-0.0125,-0.0053,-0.0048,-0.0043,0,0,0,0,0,0.0074,0.0092,0.0083,0.0082,0.0067,0.0061,0.0057,0.0033,0.0019,0.0025,-0.0003,-0.0025,-0.007,-0.0071,-0.0078,-0.0064,-0.0127,-0.0126,-0.0125,-0.0056,-0.0049,-0.0043,0,0,0,0,0,0,0.0095,0.0089,0.0079,0.0093,0.0082,0.0055,0.0056,0.0041,0.0023,0.002,-0.0019,-0.0027,-0.0037,-0.0061,-0.0061,-0.0075,-0.0103,-0.0103,-0.0048,-0.0041,-0.0036,-0.0014,-0.0095,0,0,0,0,0,0.0105,0.0116,0.0102,0.0111,0.0109,0.0084,0.0077,0.0065,0.0046,0.0038,0.001,-0.0018,-0.004,-0.0048,-0.0073,-0.0076,-0.0106,-0.0074,-0.0068,-0.0063,-0.0051,-0.0085,-0.0081,-0.0122,-0.0122,-0.0122,0,0,0.0113,0.0112,0.0117,0.0116,0.0104,0.0114,0.0079,0.008,0.009,0.0034,0.0036,-0.0001,-0.0038,-0.0044,-0.005,-0.006,-0.007,-0.0062,-0.0057,-0.0048,-0.0084,-0.008,-0.0076,-0.0122,-0.0122,-0.0122,0,0,0.0143,0.0138,0.016,0.0158,0.0151,0.0138,0.0143,0.0123,0.0118,0.0111,0.0074,0.005,0.0015,-0.0003,-0.0019,0.0003,-0.0043,-0.001,0.0041,0.0008,0.0011,0.0014,-0.0025,-0.0027,-0.0003,-0.0003,-0.0002,0,0.0153,0.0182,0.0163,0.0184,0.0191,0.0155,0.0182,0.0172,0.015,0.0152,0.0122,0.007,0.0037,0.0035,0.004,0.0017,-0.0014,0.0022,0.0016,0.0018,0.002,-0.0021,-0.0024,0.0001,0.0001,0.0,-0.0,0,0.0199,0.0222,0.0235,0.0252,0.0255,0.0273,0.0259,0.0263,0.0243,0.0224,0.021,0.0155,0.0128,0.0109,0.008,0.008,0.0049,0.0025,0.0004,0.0029,-0.0016,-0.002,0.0006,0.0005,0.0004,0.0003,0,0,0.0234,0.0264,0.0272,0.0296,0.0298,0.031,0.0331,0.0343,0.0367,0.0317,0.0333,0.0277,0.0238,0.0218,0.0173,0.0142,0.0118,0.0095,0.0091,0.0064,0.0038,0.0032,0.0026,0.009,0.009,0.009,0.0001,0,0.0281,0.0345,0.0342,0.0397,0.043,0.0414,0.044,0.0442,0.0429,0.0432,0.0367,0.0353,0.0283,0.0271,0.0229,0.0153,0.0112,0.0144,0.0011,0.0008,0.0006,0.0023,0.0064,-0.001,-0.0004,-0.0004,-0.0005,0,0.0337,0.0376,0.0444,0.049,0.0503,0.0522,0.0566,0.0588,0.058,0.0568,0.0532,0.0472,0.0424,0.0354,0.0232,0.0255,0.0156,0.0082,0.0076,0.0046,-0.0005,-0.0034,-0.0018,-0.018,-0.0011,-0.0011,-0.001,0,0.0391,0.0449,0.051,0.0525,0.0566,0.0593,0.0616,0.0629,0.0672,0.0655,0.0665,0.058,0.0554,0.0419,0.0266,0.0247,0.0123,0.0075,-0.003,-0.0032,-0.0034,-0.0036,-0.018,-0.002,-0.002,-0.0019,-0.0019,0,0.0453,0.0501,0.0541,0.0575,0.0658,0.0656,0.0739,0.0751,0.0779,0.0844,0.0739,0.0762,0.0569,0.0471,0.0306,0.0141,0.015,-0.0013,-0.0049,-0.0009,-0.0007,-0.0178,-0.0274,-0.0023,-0.0022,-0.0021,-0.0021,0,0.0504,0.0529,0.0603,0.066,0.0688,0.0747,0.0834,0.0892,0.0901,0.0982,0.0979,0.0906,0.0783,0.0575,0.037,0.0215,-0.005,-0.0029,0.0031,0.0004,-0.0246,-0.0338,-0.0522,-0.059,-0.0161,-0.0162,-0.0162,0,0.0536,0.0581,0.0673,0.073,0.0758,0.0848,0.0918,0.096,0.1033,0.1084,0.113,0.1032,0.1001,0.0688,0.0394,0.0104,-0.0066,-0.0059,-0.009,-0.0246,-0.0376,-0.0447,-0.0495,-0.0075,-0.0074,-0.0074,-0.0074,0,0.0598,0.0626,0.069,0.0815,0.0895,0.1003,0.1105,0.1186,0.1252,0.1321,0.1394,0.137,0.1078,0.0812,0.041,0.021,-0.0156,-0.0064,-0.024,-0.0326,-0.0397,-0.0483,-0.0043,-0.0072,-0.0072,-0.0072,-0.0072,-0.0072,0.0641,0.0698,0.0786,0.0904,0.1007,0.1145,0.125,0.1367,0.1513,0.1635,0.1603,0.1613,0.1197,0.0662,0.0371,-0.0141,-0.017,-0.0298,-0.04,-0.046,-0.0513,-0.0067,-0.0126,-0.0126,-0.0127,-0.0127,-0.0128,0,0.0696,0.0764,0.0872,0.1012,0.1135,0.1183,0.1366,0.1484,0.1674,0.179,0.186,0.1675,0.118,0.0663,-0.0043,-0.0406,-0.0534,-0.0613,-0.0709,-0.0746,-0.0357,-0.0339,-0.0427,-0.0427,-0.0427,-0.0427,-0.0427,-0.0426,0.0725,0.0831,0.0889,0.1095,0.1199,0.1374,0.1487,0.1674,0.1809,0.197,0.1996,0.197,0.1546,0.0267,-0.0587,-0.0764,-0.1,-0.106,-0.1212,-0.0955,-0.0933,-0.0913,-0.0918,-0.1126,-0.1127,-0.1527,-0.1531,-0.1534]}],[{"header":{"parameterUnit":"m.s-1","parameterCategory":2,"la1":30.2991,"la2":30.254,"lo1":-89.0895,"lo2":-89.0444,"dy":0.0017,"dx":0.0017,"nx":28,"ny":28,"refTime":"2024-02-06T09:00:00:Z","depth":"2","parameterNumber":2,"parameterNumberName":"U-component_of_CURRENTS"},"data":[0,0,0,0,0,0,0,0,0,0,0,0,0,0,0,0,0,0,0,0,0,0,0,0,0,0,0,0,0,0,0,0,0,0,0,0,0,0,0,0,0,0,0,0,0,0,0,0,0,0,0,0,0,0,0,0,0,0,0.2914,0.2915,0,0.2925,0.2925,0.2925,0.2911,0.2911,0.291,0.291,0.2899,0.2898,0.2898,0,0,0,0,0,0,0,0,0,0,0,0,0,0.2889,0.2889,0.2914,0.2915,0.2915,0.2925,0.2925,0.2925,0.2911,0.2911,0.291,0.291,0.2899,0.2898,0.2898,0,0,0,0,0,0,0,0,0,0,0,0,0,0.2897,0.2889,0.2914,0.2912,0.2912,0.2925,0.2925,0.2925,0.2911,0.2911,0.291,0.291,0.2899,0.2898,0.2898,0.2904,0,0,0.2898,0.2898,0,0,0,0,0,0,0,0,0.2897,0.2898,0.2911,0.2912,0.2912,0.2919,0.2912,0.2918,0.2911,0.2908,0.291,0.291,0.2905,0.2905,0.2904,0.2904,0.2903,0.2898,0.2898,0.2898,0.2898,0,0,0,0,0,0,0,0.2896,0.2897,0.2915,0.2912,0.2912,0.2913,0.2913,0.2913,0.2906,0.2908,0.2908,0.2914,0.2905,0.2904,0.2903,0.2903,0.2898,0.2898,0.2898,0.2898,0.296,0.2962,0,0,0,0,0,0,0.2901,0.2897,0.2915,0.2916,0.2907,0.2914,0.2914,0.2915,0.2906,0.2906,0.2914,0.2914,0.2904,0.2903,0.2903,0.2947,0.2898,0.2898,0.2898,0.2958,0.296,0.2962,0,0,0,0,0,0,0.29,0.2902,0.2915,0.2909,0.2911,0.2915,0.2915,0.2915,0.2927,0.2912,0.291,0.2929,0.2904,0.2903,0.292,0.2945,0.2898,0.2897,0.2956,0.2959,0.2961,0.301,0,0,0,0,0,0,0.2899,0.2902,0.2909,0.2909,0.2912,0.2934,0.2916,0.2916,0.2932,0.2931,0.2923,0.2921,0.2904,0.292,0.292,0.2943,0.2897,0.2954,0.2957,0.296,0.3007,0.3014,0.3021,0,0,0,0,0,0.2898,0.2905,0.2909,0.2912,0.292,0.2935,0.2937,0.2935,0.2933,0.2944,0.2942,0.2922,0.2941,0.2922,0.292,0.2945,0.2952,0.2956,0.296,0.3003,0.3013,0.3021,0,0,0,0,0,0,0.2895,0.2905,0.2909,0.2918,0.2934,0.2934,0.2944,0.2948,0.2955,0.2957,0.2939,0.2937,0.2967,0.2953,0.2932,0.2975,0.2946,0.2949,0.2979,0.2988,0.2995,0.3023,0.2897,0,0,0,0,0,0.2901,0.2909,0.2922,0.2931,0.294,0.2947,0.2956,0.2961,0.2966,0.2969,0.2964,0.2967,0.2981,0.2981,0.2989,0.3005,0.3013,0.3024,0.3031,0.3037,0.3062,0.3091,0.3103,0.2975,0.2975,0.2975,0,0,0.2901,0.291,0.2914,0.2933,0.2941,0.2961,0.2951,0.2972,0.2996,0.2967,0.2994,0.2996,0.2995,0.3018,0.303,0.3008,0.3079,0.3042,0.3047,0.3069,0.3096,0.3108,0.3119,0.2978,0.2977,0.2977,0,0,0.2908,0.2917,0.2928,0.2946,0.2972,0.2979,0.2992,0.3006,0.3021,0.3044,0.3042,0.3066,0.3063,0.3081,0.3085,0.3141,0.3123,0.3137,0.3186,0.3213,0.3223,0.3233,0.3258,0.3269,0.3131,0.3131,0.3132,0,0.2913,0.2924,0.2936,0.2957,0.2974,0.2991,0.3013,0.3037,0.3057,0.3075,0.3058,0.3098,0.3098,0.3147,0.3171,0.3158,0.3167,0.3147,0.3222,0.3231,0.324,0.3264,0.3275,0.3134,0.3134,0.3134,0.3133,0,0.2926,0.2945,0.2954,0.2985,0.3008,0.3029,0.3065,0.3094,0.3106,0.3122,0.3173,0.318,0.3202,0.321,0.3207,0.3277,0.3261,0.3232,0.3196,0.3256,0.3277,0.3288,0.3138,0.3137,0.3137,0.3136,0,0,0.2909,0.2954,0.2959,0.2972,0.3025,0.3035,0.3095,0.314,0.3178,0.3201,0.3246,0.3287,0.3294,0.3305,0.331,0.3343,0.3415,0.332,0.332,0.3341,0.3477,0.3419,0.3426,0.339,0.3393,0.3395,0.3466,0,0.2916,0.2946,0.2978,0.301,0.3023,0.3071,0.3119,0.3169,0.3211,0.3261,0.3296,0.3342,0.3329,0.335,0.3383,0.3418,0.3449,0.3399,0.3422,0.3424,0.336,0.3438,0.3153,0.3188,0.3477,0.3479,0.348,0,0.2914,0.2933,0.2965,0.3009,0.3022,0.3053,0.3126,0.318,0.3272,0.3309,0.3368,0.3395,0.3476,0.3443,0.3528,0.3494,0.3502,0.3514,0.3516,0.3458,0.3387,0.3177,0.3198,0.3499,0.3497,0.3496,0.3495,0,0.2869,0.2919,0.2936,0.2954,0.3017,0.3047,0.3092,0.3187,0.3249,0.3358,0.3405,0.348,0.3533,0.3562,0.36,0.3568,0.3679,0.3624,0.3578,0.3573,0.3336,0.3306,0.368,0.368,0.368,0.368,0.368,0,0.285,0.286,0.2914,0.2921,0.2957,0.3017,0.3086,0.3154,0.3267,0.3339,0.3428,0.3498,0.3568,0.363,0.3636,0.3657,0.3703,0.362,0.3599,0.3345,0.3317,0.3586,0.3574,0.3683,0.3682,0.3681,0.3681,0,0.2795,0.2832,0.2852,0.2912,0.2937,0.2965,0.3081,0.3126,0.3253,0.3357,0.3398,0.3539,0.3626,0.3677,0.3746,0.3705,0.3727,0.3713,0.342,0.3364,0.3591,0.3581,0.3672,0.3671,0.367,0.3669,0.3668,0,0.2767,0.2771,0.2833,0.2848,0.2877,0.2939,0.2978,0.3108,0.3171,0.337,0.3403,0.3548,0.3612,0.3706,0.3679,0.3683,0.3732,0.3405,0.3298,0.3626,0.3597,0.3588,0.358,0.2998,0.2992,0.2987,0.2983,0,0.2712,0.2739,0.2757,0.279,0.2823,0.2867,0.294,0.2989,0.3142,0.3226,0.3345,0.3424,0.3543,0.343,0.3461,0.3419,0.3382,0.3304,0.3723,0.3053,0.2998,0.2967,0.2979,0.2938,0.2942,0.2946,0.2948,0.295,0.2671,0.2669,0.2695,0.2713,0.2747,0.2763,0.2759,0.2838,0.2908,0.2994,0.3169,0.3178,0.3225,0.3134,0.3041,0.2967,0.3199,0.3021,0.3032,0.305,0.2969,0.2916,0.2825,0.2828,0.2831,0.2834,0.2837,0,0.2595,0.2598,0.2611,0.2613,0.2588,0.2655,0.2692,0.2653,0.2653,0.2775,0.284,0.2641,0.2586,0.2629,0.2457,0.2464,0.2406,0.2347,0.2226,0.2275,0.2318,0.2193,0.1846,0.1843,0.184,0.1837,0,0,0.2557,0.2522,0.2514,0.244,0.2442,0.2366,0.2354,0.2321,0.2355,0.2321,0.2304,0.2499,0.258,0.218,0.2131,0.1953,0.2096,0.1881,0.2684,0.2594,0.2631,0.2727,0.2596,0,0,0,0,0]},{"header":{"parameterUnit":"m.s-1","parameterCategory":2,"la1":30.2991,"la2":30.254,"lo1":-89.0895,"lo2":-89.0444,"dy":0.0017,"dx":0.0017,"nx":28,"ny":28,"refTime":"2024-02-06T09:00:00:Z","depth":"2","parameterNumber":3,"parameterNumberName":"V-component_of_CURRENTS"},"data":[0,0,0,0,0,0,0,0,0,0,0,0,0,0,0,0,0,0,0,0,0,0,0,0,0,0,0,0,0,0,0,0,0,0,0,0,0,0,0,0,0,0,0,0,0,0,0,0,0,0,0,0,0,0,0,0,0,0,0.0214,0.0213,0,0.017,0.017,0.0169,0.0137,0.0137,0.0137,0.0136,0.008,0.0079,0.0077,0,0,0,0,0,0,0,0,0,0,0,0,0,0.0215,0.0215,0.0214,0.0213,0.0213,0.017,0.017,0.0169,0.0137,0.0137,0.0137,0.0136,0.008,0.0079,0.0077,0,0,0,0,0,0,0,0,0,0,0,0,0,0.0197,0.0215,0.0214,0.0192,0.0189,0.017,0.0169,0.0169,0.0137,0.0137,0.0137,0.0136,0.0081,0.0079,0.0077,0.0073,0,0,0.0071,0.007,0,0,0,0,0,0,0,0,0.0198,0.0197,0.0195,0.0193,0.019,0.0159,0.0149,0.0136,0.0137,0.0157,0.0136,0.0136,0.0105,0.0101,0.0094,0.0071,0.0068,0.0071,0.007,0.0069,0.0069,0,0,0,0,0,0,0,0.02,0.0199,0.0196,0.0195,0.0192,0.0165,0.0163,0.0146,0.0134,0.0155,0.0153,0.0148,0.0104,0.0096,0.0093,0.0068,0.0071,0.0069,0.0068,0.0068,0.0034,0.0035,0,0,0,0,0,0,0.0208,0.02,0.0198,0.0195,0.0193,0.0166,0.0163,0.0169,0.0134,0.0128,0.0149,0.0147,0.01,0.0095,0.009,0.0096,0.0069,0.0067,0.0066,0.0034,0.0034,0.0035,0,0,0,0,0,0,0.0209,0.0209,0.02,0.0196,0.0193,0.0167,0.0174,0.0169,0.0163,0.0129,0.0123,0.0149,0.0099,0.0093,0.0081,0.0093,0.0067,0.0065,0.0034,0.0034,0.0035,0.01,0,0,0,0,0,0,0.0209,0.021,0.0217,0.0197,0.0193,0.0199,0.0174,0.0168,0.0161,0.0158,0.0127,0.0121,0.0098,0.0084,0.0079,0.009,0.0063,0.0033,0.0034,0.0034,0.0097,0.0103,0.0107,0,0,0,0,0,0.021,0.0226,0.0218,0.0217,0.0205,0.02,0.0196,0.0174,0.0162,0.0167,0.0142,0.0122,0.0083,0.0083,0.0077,0.0088,0.0033,0.0034,0.0034,0.0095,0.0102,0.0107,0,0,0,0,0,0,0.0228,0.0224,0.0215,0.0228,0.0218,0.0194,0.0195,0.018,0.0165,0.0162,0.0128,0.0121,0.0112,0.0091,0.0091,0.0078,0.0054,0.0054,0.0102,0.0108,0.0113,0.0132,0.0062,0,0,0,0,0,0.0237,0.0249,0.0235,0.0245,0.0242,0.0219,0.0213,0.0203,0.0185,0.0178,0.0153,0.0128,0.011,0.0102,0.008,0.0078,0.0049,0.0079,0.0084,0.0088,0.0099,0.0064,0.0067,0.0037,0.0037,0.0036,0,0,0.0245,0.0244,0.0249,0.0249,0.0237,0.0247,0.0215,0.0215,0.0225,0.0174,0.0176,0.0143,0.0111,0.0106,0.01,0.0091,0.008,0.0089,0.0093,0.0102,0.0065,0.0068,0.0071,0.0037,0.0037,0.0037,0,0,0.0271,0.0268,0.0288,0.0286,0.0279,0.0268,0.0272,0.0254,0.0249,0.0243,0.0209,0.0187,0.0158,0.014,0.0127,0.0145,0.0104,0.0134,0.0179,0.0144,0.0147,0.0149,0.0113,0.0111,0.014,0.014,0.014,0,0.028,0.0308,0.0291,0.031,0.0316,0.0283,0.0308,0.0298,0.0278,0.028,0.0252,0.0205,0.0176,0.0174,0.0178,0.0158,0.0128,0.0162,0.0152,0.0153,0.0154,0.0116,0.0113,0.0143,0.0143,0.0143,0.0142,0,0.0323,0.0345,0.0356,0.0372,0.0375,0.0391,0.0378,0.0381,0.0362,0.0345,0.0331,0.0281,0.0256,0.0238,0.0214,0.0209,0.0183,0.016,0.0141,0.0161,0.0119,0.0115,0.0148,0.0147,0.0146,0.0145,0,0,0.0353,0.0383,0.0389,0.0413,0.0414,0.0425,0.0444,0.0455,0.0474,0.0428,0.0441,0.0391,0.0353,0.0336,0.0294,0.0262,0.0236,0.022,0.0216,0.0191,0.0157,0.0139,0.0132,0.0209,0.0209,0.0209,0.0125,0,0.0396,0.0456,0.0454,0.0505,0.0536,0.0521,0.0545,0.0546,0.0532,0.0532,0.0471,0.0458,0.0394,0.0383,0.034,0.0268,0.0229,0.0261,0.0136,0.0132,0.012,0.0129,0.0164,0.0093,0.0121,0.012,0.0119,0,0.0447,0.0484,0.0547,0.0592,0.0603,0.0622,0.066,0.0681,0.0669,0.0657,0.0621,0.0564,0.0516,0.0453,0.0334,0.0357,0.0266,0.0197,0.0192,0.0153,0.0107,0.0077,0.0083,0.0112,0.0112,0.0113,0.0113,0,0.0495,0.0551,0.0608,0.0622,0.0661,0.0687,0.0709,0.0718,0.0757,0.0736,0.0744,0.066,0.0632,0.0506,0.0359,0.0346,0.0219,0.0182,0.0076,0.0073,0.0069,0.0066,0.0092,0.0092,0.0093,0.0093,0.0093,0,0.0552,0.0597,0.0636,0.0668,0.0747,0.0745,0.0821,0.0831,0.0854,0.091,0.0812,0.0826,0.0644,0.0545,0.0393,0.0229,0.0242,0.0089,0.0054,0.0091,0.0092,0.0082,0.0082,0.009,0.009,0.0091,0.0091,0,0.0598,0.0621,0.0692,0.0746,0.0773,0.0829,0.0911,0.0964,0.0969,0.1038,0.1035,0.0957,0.083,0.0632,0.0435,0.0291,0.0123,0.0058,0.0113,0.0086,-0.0012,-0.0008,-0.0068,-0.007,-0.0071,-0.0072,-0.0072,0,0.0627,0.067,0.0757,0.0811,0.0838,0.0923,0.099,0.1028,0.1094,0.1128,0.1168,0.1062,0.1014,0.0707,0.0432,0.0159,0.0119,0.0008,-0.0013,0.0001,-0.0027,-0.0021,-0.0016,-0.0,-0.0,-0.0001,-0.0001,0,0.0685,0.0711,0.0772,0.089,0.0966,0.107,0.1164,0.1237,0.1293,0.1343,0.1389,0.1348,0.1061,0.0791,0.0411,0.0236,0.0052,-0.0002,0.0001,0.004,0.0059,0.0034,0.0038,-0.0001,-0.0001,-0.0001,-0.0001,-0.0001,0.0726,0.078,0.0863,0.0974,0.1071,0.1199,0.1296,0.1395,0.1517,0.1598,0.1559,0.1498,0.1181,0.0699,0.0371,0.0033,0.0054,-0.0065,-0.0063,-0.0061,-0.0033,-0.0016,-0.0086,-0.0086,-0.0086,-0.0087,-0.0087,0,0.0778,0.0842,0.0943,0.1075,0.1188,0.1236,0.1402,0.1499,0.1648,0.1704,0.1735,0.1439,0.1122,0.0747,0.0243,-0.0053,-0.0065,-0.0143,-0.0101,-0.0096,-0.0093,-0.0066,-0.0129,-0.013,-0.0132,-0.0133,0,0,0.0806,0.0905,0.0958,0.1148,0.1246,0.1406,0.1508,0.165,0.1733,0.1797,0.1756,0.1674,0.1223,0.0844,0.044,0.0145,0.0098,0.01,0.0173,0.0277,0.0283,-0.0004,0.0048,0,0,0,0,0]}],[{"header":{"parameterUnit":"m.s-1","parameterCategory":2,"la1":30.2991,"la2":30.254,"lo1":-89.0895,"lo2":-89.0444,"dy":0.0017,"dx":0.0017,"nx":28,"ny":28,"refTime":"2024-02-06T09:00:00:Z","depth":"4","parameterNumber":2,"parameterNumberName":"U-component_of_CURRENTS"},"data":[0,0,0,0,0,0,0,0,0,0,0,0,0,0,0,0,0,0,0,0,0,0,0,0,0,0,0,0,0,0,0,0,0,0,0,0,0,0,0,0,0,0,0,0,0,0,0,0,0,0,0,0,0,0,0,0,0,0,0.191,0.1911,0,0.1966,0.1967,0.1967,0.2017,0.2018,0.2019,0.202,0.209,0.2091,0.2092,0,0,0,0,0,0,0,0,0,0,0,0,0,0.1839,0.184,0.191,0.1911,0.1912,0.1966,0.1967,0.1967,0.2017,0.2018,0.2019,0.202,0.2089,0.209,0.2092,0,0,0,0,0,0,0,0,0,0,0,0,0,0.1878,0.184,0.191,0.1945,0.1949,0.1966,0.1967,0.1967,0.2017,0.2018,0.2019,0.2021,0.2089,0.209,0.2092,0.2077,0,0,0.2097,0.2098,0,0,0,0,0,0,0,0,0.1875,0.188,0.1939,0.1943,0.1947,0.1988,0.1967,0.2006,0.2017,0.1989,0.202,0.2021,0.2058,0.2062,0.2066,0.2081,0.2084,0.2097,0.2098,0.2099,0.2099,0,0,0,0,0,0,0,0.1873,0.1878,0.193,0.194,0.1945,0.1956,0.1963,0.1975,0.2014,0.1991,0.1996,0.2005,0.206,0.2064,0.2068,0.2085,0.2097,0.2098,0.2099,0.21,0.2215,0.2217,0,0,0,0,0,0,0.187,0.1875,0.1928,0.1932,0.1916,0.1956,0.1964,0.1972,0.2014,0.2022,0.2004,0.2008,0.2061,0.2066,0.2071,0.2163,0.2099,0.21,0.2101,0.2213,0.2216,0.2218,0,0,0,0,0,0,0.1868,0.1874,0.1926,0.1907,0.1915,0.1957,0.1965,0.1972,0.202,0.2024,0.2032,0.205,0.2062,0.2068,0.2122,0.2162,0.2101,0.2102,0.2211,0.2214,0.2217,0.2278,0,0,0,0,0,0,0.1866,0.1873,0.1898,0.1906,0.1916,0.1962,0.1964,0.1973,0.2022,0.2028,0.2064,0.207,0.2063,0.212,0.2124,0.2163,0.2104,0.2208,0.2212,0.2216,0.2273,0.2283,0.2291,0,0,0,0,0,0.1863,0.1882,0.1899,0.1907,0.1942,0.1964,0.197,0.2001,0.2024,0.2049,0.208,0.2071,0.2147,0.2123,0.2127,0.2167,0.2206,0.2211,0.2216,0.2269,0.2281,0.2291,0,0,0,0,0,0,0.1866,0.189,0.1908,0.1936,0.1964,0.1974,0.2006,0.2026,0.2069,0.209,0.2093,0.21,0.2165,0.2159,0.2132,0.2214,0.2177,0.2183,0.2217,0.2227,0.2236,0.2253,0.2105,0,0,0,0,0,0.1877,0.1903,0.1923,0.1953,0.1969,0.1997,0.202,0.2042,0.2071,0.2093,0.2118,0.2149,0.2179,0.22,0.2222,0.2261,0.2263,0.2293,0.2302,0.2309,0.2327,0.2357,0.237,0.2233,0.2233,0.2233,0,0,0.1888,0.1906,0.1923,0.1958,0.1983,0.2011,0.2015,0.2061,0.2098,0.2093,0.2165,0.2186,0.2199,0.2249,0.2276,0.2253,0.235,0.2315,0.2321,0.2336,0.2364,0.2377,0.2388,0.2236,0.2236,0.2235,0,0,0.1906,0.194,0.1964,0.199,0.2038,0.2051,0.2075,0.2112,0.215,0.2204,0.222,0.2271,0.2307,0.2329,0.2341,0.2414,0.2399,0.2424,0.2477,0.2506,0.2517,0.2527,0.2545,0.2556,0.2423,0.2423,0.2423,0,0.1924,0.1951,0.1977,0.2006,0.2036,0.2075,0.2107,0.2145,0.2201,0.2234,0.2241,0.2327,0.2344,0.2405,0.2438,0.2434,0.2444,0.2431,0.2516,0.2526,0.2535,0.2551,0.2562,0.2427,0.2426,0.2426,0.2426,0,0.1944,0.1985,0.2004,0.2053,0.2089,0.2126,0.2173,0.2227,0.2274,0.2304,0.239,0.2419,0.2467,0.2484,0.2486,0.2567,0.2551,0.2525,0.2485,0.2553,0.2565,0.2575,0.2432,0.2431,0.243,0.2429,0,0,0.1929,0.2003,0.2016,0.2045,0.2119,0.214,0.222,0.2282,0.2339,0.2401,0.2468,0.2537,0.2563,0.2582,0.2597,0.2633,0.2709,0.2618,0.2618,0.2629,0.2774,0.2595,0.2589,0.2698,0.27,0.2702,0.2755,0,0.1941,0.1994,0.2036,0.2098,0.2124,0.2192,0.2255,0.2325,0.2393,0.2468,0.2522,0.2595,0.2595,0.2638,0.2674,0.271,0.2742,0.2697,0.2714,0.2715,0.2541,0.2596,0.2709,0.2763,0.2765,0.2767,0.2768,0,0.1937,0.1975,0.2035,0.2112,0.2134,0.2187,0.2292,0.2359,0.2472,0.2529,0.2611,0.2655,0.2748,0.2727,0.2814,0.2788,0.2798,0.2809,0.281,0.263,0.2555,0.2684,0.2787,0.2786,0.2784,0.2783,0.2782,0,0.1884,0.1968,0.2017,0.2046,0.2143,0.22,0.2267,0.2383,0.2453,0.259,0.2649,0.2741,0.2808,0.2842,0.288,0.286,0.2952,0.2911,0.2755,0.2743,0.286,0.2849,0.2965,0.2964,0.2964,0.2964,0.2964,0,0.1852,0.1894,0.2003,0.2027,0.2099,0.2182,0.2284,0.2368,0.2499,0.2572,0.2687,0.2747,0.2845,0.2901,0.291,0.2864,0.2973,0.2779,0.2747,0.2885,0.2876,0.2867,0.2855,0.2966,0.2966,0.2965,0.2965,0,0.178,0.1855,0.1914,0.203,0.2077,0.2134,0.2291,0.2347,0.2495,0.26,0.2651,0.2786,0.2851,0.2913,0.2976,0.2885,0.2871,0.2826,0.2986,0.296,0.2635,0.2627,0.2646,0.264,0.2635,0.2631,0.2628,0,0.174,0.1767,0.1906,0.1949,0.2012,0.2118,0.2181,0.2336,0.2398,0.2593,0.2615,0.2747,0.281,0.2748,0.2833,0.2822,0.2788,0.2755,0.2682,0.2637,0.2605,0.2604,0.2602,0.262,0.2619,0.2617,0.2616,0,0.1664,0.1737,0.1789,0.1879,0.1956,0.2026,0.2132,0.2163,0.2328,0.2481,0.2512,0.254,0.2602,0.263,0.2644,0.2633,0.276,0.2703,0.2712,0.2643,0.2605,0.2578,0.2582,0.2599,0.2601,0.2603,0.2604,0,0.1618,0.1636,0.172,0.1781,0.187,0.1894,0.1971,0.2024,0.2103,0.2304,0.2311,0.2442,0.2574,0.2533,0.2551,0.2523,0.2474,0.2374,0.24,0.242,0.2319,0.2237,0.2098,0,0,0,0,0,0.1553,0.1556,0.1607,0.1657,0.1735,0.1787,0.1909,0.1985,0.2146,0.2102,0.2198,0.2241,0.226,0.2334,0.2257,0.2457,0.2492,0.2357,0.2393,0.2504,0.2524,0.2425,0,0,0,0,0,0,0.1508,0.1553,0.1561,0.1536,0.1546,0.161,0.1682,0.1793,0.1779,0.1951,0.1972,0.2097,0.2152,0.2273,0.2211,0.2232,0.2204,0.2445,0.2438,0.2493,0.2511,0.2527,0.2432,0,0,0,0,0]},{"header":{"parameterUnit":"m.s-1","parameterCategory":2,"la1":30.2991,"la2":30.254,"lo1":-89.0895,"lo2":-89.0444,"dy":0.0017,"dx":0.0017,"nx":28,"ny":28,"refTime":"2024-02-06T09:00:00:Z","depth":"4","parameterNumber":3,"parameterNumberName":"V-component_of_CURRENTS"},"data":[0,0,0,0,0,0,0,0,0,0,0,0,0,0,0,0,0,0,0,0,0,0,0,0,0,0,0,0,0,0,0,0,0,0,0,0,0,0,0,0,0,0,0,0,0,0,0,0,0,0,0,0,0,0,0,0,0,0,0.0211,0.0211,0,0.0186,0.0186,0.0185,0.0171,0.0171,0.0171,0.0171,0.0136,0.0135,0.0134,0,0,0,0,0,0,0,0,0,0,0,0,0,0.0207,0.0208,0.0211,0.0211,0.021,0.0186,0.0186,0.0185,0.0171,0.0171,0.0171,0.0171,0.0136,0.0135,0.0134,0,0,0,0,0,0,0,0,0,0,0,0,0,0.0199,0.0208,0.0211,0.02,0.0199,0.0186,0.0186,0.0185,0.0171,0.0171,0.0171,0.0171,0.0136,0.0135,0.0134,0.0129,0,0,0.013,0.0129,0,0,0,0,0,0,0,0,0.0199,0.0199,0.0202,0.0201,0.0199,0.0181,0.0171,0.0166,0.0171,0.0182,0.0171,0.017,0.015,0.0147,0.0144,0.0127,0.0125,0.013,0.0129,0.0128,0.0128,0,0,0,0,0,0,0,0.02,0.02,0.0201,0.0202,0.02,0.0183,0.0182,0.017,0.0167,0.0181,0.018,0.0176,0.0149,0.0145,0.0143,0.0125,0.013,0.0129,0.0128,0.0127,0.0105,0.0105,0,0,0,0,0,0,0.0204,0.02,0.0202,0.0201,0.0198,0.0183,0.0182,0.0187,0.0167,0.0164,0.0176,0.0176,0.0147,0.0144,0.0141,0.0149,0.0128,0.0127,0.0126,0.0105,0.0105,0.0105,0,0,0,0,0,0,0.0205,0.0205,0.0203,0.0199,0.0197,0.0183,0.0189,0.0187,0.0188,0.0164,0.0161,0.018,0.0147,0.0143,0.0138,0.0147,0.0127,0.0125,0.0104,0.0105,0.0105,0.0155,0,0,0,0,0,0,0.0205,0.0206,0.0213,0.02,0.0198,0.0205,0.0189,0.0186,0.0185,0.0184,0.0166,0.0162,0.0147,0.014,0.0136,0.0145,0.0125,0.0104,0.0104,0.0105,0.0153,0.0157,0.016,0,0,0,0,0,0.0205,0.0218,0.0214,0.0214,0.0209,0.0205,0.0203,0.0192,0.0186,0.0192,0.0177,0.0163,0.0139,0.0139,0.0135,0.0144,0.0104,0.0104,0.0105,0.0152,0.0156,0.016,0,0,0,0,0,0,0.0218,0.0217,0.0213,0.0224,0.0219,0.0203,0.0206,0.0198,0.0191,0.0191,0.0168,0.0164,0.0161,0.0144,0.0145,0.0136,0.0118,0.0118,0.0155,0.0159,0.0163,0.0178,0.0123,0,0,0,0,0,0.0225,0.0236,0.0228,0.0236,0.0236,0.0222,0.022,0.0214,0.0204,0.0202,0.0186,0.017,0.0158,0.0153,0.0139,0.0138,0.0113,0.0138,0.0142,0.0145,0.0154,0.0122,0.0124,0.0106,0.0106,0.0106,0,0,0.0232,0.0232,0.0238,0.024,0.0234,0.0242,0.0221,0.0224,0.0234,0.0199,0.0206,0.0183,0.016,0.0158,0.0155,0.0147,0.0136,0.0146,0.0149,0.0156,0.0123,0.0124,0.0126,0.0106,0.0106,0.0106,0,0,0.0252,0.0253,0.0269,0.0269,0.0267,0.026,0.0264,0.0254,0.0254,0.0254,0.0231,0.0216,0.0198,0.0184,0.0175,0.0189,0.0155,0.0181,0.0214,0.0183,0.0184,0.0185,0.0152,0.015,0.0184,0.0184,0.0184,0,0.026,0.0283,0.0272,0.0287,0.0294,0.0273,0.0293,0.0288,0.0278,0.0281,0.0264,0.0232,0.0212,0.0209,0.0214,0.0198,0.0173,0.0202,0.0188,0.0189,0.0189,0.0154,0.0151,0.0187,0.0186,0.0186,0.0186,0,0.0291,0.0311,0.032,0.0336,0.034,0.0354,0.0348,0.0354,0.0344,0.0333,0.0325,0.0289,0.0273,0.0259,0.0242,0.0235,0.0214,0.0196,0.018,0.0194,0.0156,0.0152,0.019,0.0189,0.0189,0.0188,0,0,0.0311,0.0339,0.0345,0.0366,0.0372,0.0382,0.04,0.041,0.0428,0.0397,0.0409,0.0374,0.0346,0.0334,0.0302,0.0273,0.0247,0.024,0.0237,0.0213,0.0175,0.0158,0.0151,0.0225,0.0225,0.0224,0.0147,0,0.0343,0.0391,0.0393,0.0437,0.0462,0.0456,0.0478,0.0482,0.0474,0.0477,0.0431,0.0425,0.0377,0.0372,0.0334,0.0274,0.0239,0.027,0.0161,0.0158,0.0146,0.0147,0.0223,0.0144,0.0143,0.0142,0.0141,0,0.0377,0.0409,0.0462,0.0504,0.0514,0.0535,0.057,0.059,0.0583,0.0576,0.055,0.0508,0.0468,0.0422,0.0318,0.0339,0.0266,0.0207,0.0203,0.0169,0.0133,0.0127,0.0133,0.0133,0.0134,0.0135,0.0135,0,0.0407,0.0458,0.0507,0.052,0.0559,0.0586,0.061,0.0621,0.0654,0.0643,0.065,0.0581,0.056,0.0455,0.0333,0.0327,0.0208,0.0184,0.0094,0.0092,0.0108,0.0108,0.0107,0.0107,0.0107,0.0107,0.0107,0,0.0442,0.0483,0.0528,0.0556,0.0626,0.0633,0.0701,0.0713,0.0736,0.0776,0.0707,0.0709,0.0567,0.0479,0.0355,0.0214,0.0223,0.0102,0.0073,0.013,0.0133,0.0104,0.0105,0.0104,0.0105,0.0105,0.0106,0,0.0466,0.0495,0.0557,0.0614,0.0644,0.0695,0.0777,0.0819,0.0832,0.0881,0.0882,0.0811,0.0695,0.0537,0.0368,0.0257,0.0115,0.006,0.0136,0.0111,0.0011,0.0016,-0.0045,-0.0046,-0.0047,-0.0048,-0.0048,0,0.0481,0.0518,0.0607,0.0657,0.0689,0.077,0.083,0.0872,0.092,0.0942,0.0964,0.0872,0.08,0.0551,0.0378,0.0133,0.0093,0.0015,0.0007,0.002,-0.0003,0.0003,0.0008,-0.005,-0.005,-0.005,-0.0051,0,0.0512,0.0545,0.0599,0.0707,0.0781,0.0872,0.0955,0.0998,0.1045,0.1053,0.103,0.0899,0.0765,0.0559,0.0368,0.0191,0.0063,0.0003,0.0004,-0.0004,0.0012,-0.0008,-0.0002,-0.0054,-0.0054,-0.0053,-0.0053,0,0.0536,0.0579,0.0656,0.0751,0.0849,0.0941,0.0986,0.1037,0.1085,0.1096,0.1087,0.0936,0.0854,0.059,0.0416,0.0237,0.0185,0.0118,0.0111,0.0113,0.0174,0.0219,0.0195,0,0,0,0,0,0.0556,0.0608,0.0694,0.0798,0.0895,0.0958,0.1056,0.1089,0.1131,0.112,0.1106,0.0978,0.0722,0.0617,0.0434,0.0383,0.0147,0.0162,0.0065,-0.0073,-0.0069,-0.0026,0,0,0,0,0,0,0.0569,0.0648,0.0692,0.082,0.0895,0.1009,0.1074,0.1104,0.1099,0.1107,0.0976,0.0918,0.0671,0.0823,0.0426,0.0374,0.0283,0.0047,0.0043,-0.0076,-0.0072,-0.0069,-0.0023,0,0,0,0,0]}]]